AFR25VH EKCH-LFPG

Flight info

Callsign AFR25VH
Flight time 1h 32m
Altitude 36000
Route LANGO DCT RAXLU DCT EKERN DCT EMMUN DCT BUB DCT NILEM DCT MOPIL
Aircraft A320/M-SDE2E3FGIJ1RWY/HB1

Departure

Time 2026-04-22 19:52
Airport Copenhagen Kastrup Airport (EKCH)

Arrival

Time 2026-04-22 21:25
Airport Charles de Gaulle International Airport (LFPG)
Time Latitude Longitude Altitude Speed Heading
2026-04-22 19:13 55.62893 12.63935 24 ft 0 kts 13°
2026-04-22 19:40 55.62876 12.63926 24 ft 4 kts 23°
2026-04-22 19:40 55.62854 12.63902 26 ft 4 kts 50°
2026-04-22 19:40 55.62843 12.63864 24 ft 4 kts 96°
2026-04-22 19:41 55.62844 12.63853 24 ft 0 kts 104°
2026-04-22 19:44 55.62843 12.63858 24 ft 3 kts 104°
2026-04-22 19:44 55.62822 12.63937 24 ft 8 kts 133°
2026-04-22 19:44 55.62772 12.63950 24 ft 7 kts 202°
2026-04-22 19:44 55.62727 12.63900 25 ft 7 kts 212°
2026-04-22 19:45 55.62688 12.63855 24 ft 6 kts 213°
2026-04-22 19:45 55.62638 12.63800 25 ft 9 kts 208°
2026-04-22 19:45 55.62582 12.63770 24 ft 8 kts 187°
2026-04-22 19:45 55.62509 12.63787 23 ft 15 kts 161°
2026-04-22 19:46 55.62420 12.63912 21 ft 17 kts 126°
2026-04-22 19:46 55.62358 12.64074 21 ft 16 kts 123°
2026-04-22 19:46 55.62300 12.64231 21 ft 14 kts 123°
2026-04-22 19:46 55.62248 12.64364 22 ft 12 kts 130°
2026-04-22 19:47 55.62174 12.64418 22 ft 11 kts 169°
2026-04-22 19:47 55.62105 12.64440 23 ft 13 kts 170°
2026-04-22 19:47 55.62039 12.64462 26 ft 14 kts 169°
2026-04-22 19:47 55.61894 12.64510 26 ft 20 kts 169°
2026-04-22 19:48 55.61762 12.64554 25 ft 18 kts 170°
2026-04-22 19:48 55.61658 12.64543 24 ft 14 kts 209°
2026-04-22 19:48 55.61581 12.64455 24 ft 12 kts 213°
2026-04-22 19:48 55.61510 12.64374 25 ft 14 kts 213°
2026-04-22 19:49 55.61413 12.64262 25 ft 18 kts 213°
2026-04-22 19:49 55.61302 12.64134 26 ft 20 kts 213°
2026-04-22 19:49 55.61168 12.63980 25 ft 25 kts 213°
2026-04-22 19:49 55.61018 12.63808 26 ft 26 kts 213°
2026-04-22 19:50 55.60901 12.63673 26 ft 18 kts 212°
2026-04-22 19:50 55.60801 12.63600 26 ft 13 kts 165°
2026-04-22 19:50 55.60737 12.63699 24 ft 12 kts 130°
2026-04-22 19:50 55.60688 12.63825 25 ft 12 kts 104°
2026-04-22 19:51 55.60720 12.63936 27 ft 2 kts 42°
2026-04-22 19:51 55.60725 12.63943 27 ft 6 kts 42°
2026-04-22 19:51 55.60932 12.64259 25 ft 78 kts 40°
2026-04-22 19:52 55.61502 12.65142 24 ft 138 kts 41°
2026-04-22 19:52 55.62298 12.66347 416 ft 150 kts 36°
2026-04-22 19:52 55.63070 12.67548 1078 ft 150 kts 33°
2026-04-22 19:52 55.63864 12.68788 1762 ft 150 kts 33°
2026-04-22 19:53 55.64635 12.69994 2401 ft 150 kts 33°
2026-04-22 19:53 55.65420 12.71203 3009 ft 149 kts 31°
2026-04-22 19:53 55.65963 12.72015 3350 ft 155 kts 31°
2026-04-22 19:53 55.67171 12.73786 3712 ft 186 kts 32°
2026-04-22 19:54 55.68229 12.75342 3994 ft 210 kts 33°
2026-04-22 19:54 55.69314 12.77325 4331 ft 242 kts 51°
2026-04-22 19:54 55.69968 12.80272 4898 ft 272 kts 76°
2026-04-22 19:54 55.69848 12.83690 5753 ft 288 kts 103°
2026-04-22 19:55 55.68845 12.86820 6653 ft 300 kts 132°
2026-04-22 19:55 55.67089 12.88849 7494 ft 307 kts 159°
2026-04-22 19:55 55.65075 12.90141 8379 ft 310 kts 163°
2026-04-22 19:55 55.62943 12.90773 9233 ft 313 kts 180°
2026-04-22 19:56 55.60779 12.90417 10099 ft 314 kts 195°
2026-04-22 19:56 55.58701 12.89111 10628 ft 326 kts 211°
2026-04-22 19:56 55.56811 12.86746 10940 ft 341 kts 228°
2026-04-22 19:56 55.55159 12.83690 11563 ft 347 kts 230°
2026-04-22 19:57 55.53550 12.80486 12343 ft 349 kts 237°
2026-04-22 19:57 55.52311 12.76821 13103 ft 348 kts 249°
2026-04-22 19:57 55.51533 12.72781 13866 ft 348 kts 261°
2026-04-22 19:57 55.51238 12.68553 14540 ft 349 kts 270°
2026-04-22 19:58 55.51088 12.64254 15188 ft 353 kts 270°
2026-04-22 19:58 55.50932 12.59899 15824 ft 358 kts 269°
2026-04-22 19:58 55.50770 12.55494 16452 ft 362 kts 269°
2026-04-22 19:58 55.50602 12.51034 17083 ft 367 kts 269°
2026-04-22 19:59 55.50430 12.46511 17703 ft 371 kts 269°
2026-04-22 20:00 55.47868 12.20514 20175 ft 398 kts 240°
2026-04-22 20:00 55.46282 12.16474 20706 ft 403 kts 233°
2026-04-22 20:01 55.44591 12.12503 21244 ft 407 kts 233°
2026-04-22 20:01 55.42881 12.08503 21782 ft 411 kts 233°
2026-04-22 20:01 55.41153 12.04476 22313 ft 415 kts 233°
2026-04-22 20:01 55.39404 12.00402 22837 ft 419 kts 232°
2026-04-22 20:02 55.37636 11.96291 23357 ft 423 kts 232°
2026-04-22 20:02 55.35852 11.92142 23861 ft 427 kts 232°
2026-04-22 20:02 55.34051 11.87958 24273 ft 431 kts 232°
2026-04-22 20:02 55.32234 11.83745 24701 ft 434 kts 232°
2026-04-22 20:03 55.30403 11.79508 25114 ft 437 kts 232°
2026-04-22 20:03 55.28555 11.75243 25524 ft 440 kts 232°
2026-04-22 20:03 55.26691 11.70958 25923 ft 444 kts 231°
2026-04-22 20:03 55.24819 11.66627 26310 ft 447 kts 233°
2026-04-22 20:04 55.23027 11.62155 26684 ft 450 kts 235°
2026-04-22 20:04 55.21310 11.57546 27051 ft 454 kts 236°
2026-04-22 20:04 55.19632 11.52846 27415 ft 457 kts 237°
2026-04-22 20:04 55.17956 11.48103 27785 ft 460 kts 236°
2026-04-22 20:05 55.16255 11.43345 28139 ft 463 kts 236°
2026-04-22 20:05 55.14522 11.38584 28492 ft 465 kts 235°
2026-04-22 20:05 55.12757 11.33822 28834 ft 468 kts 234°
2026-04-22 20:05 55.10968 11.29060 29171 ft 471 kts 234°
2026-04-22 20:06 55.09160 11.24275 29502 ft 474 kts 234°
2026-04-22 20:06 55.07339 11.19455 29835 ft 476 kts 234°
2026-04-22 20:06 55.05515 11.14618 30158 ft 479 kts 234°
2026-04-22 20:06 55.03705 11.09812 30447 ft 481 kts 234°
2026-04-22 20:07 55.01865 11.04927 30725 ft 484 kts 234°
2026-04-22 20:07 55.00015 11.00022 30995 ft 485 kts 233°
2026-04-22 20:07 54.98156 10.95098 31256 ft 487 kts 233°
2026-04-22 20:07 54.96288 10.90174 31518 ft 488 kts 233°
2026-04-22 20:08 54.94409 10.85239 31762 ft 490 kts 233°
2026-04-22 20:08 54.92516 10.80316 32061 ft 490 kts 232°
2026-04-22 20:08 54.90607 10.75413 32406 ft 489 kts 232°
2026-04-22 20:08 54.88690 10.70532 32732 ft 489 kts 232°
2026-04-22 20:09 54.86770 10.65671 33063 ft 488 kts 232°
2026-04-22 20:09 54.84846 10.60817 33383 ft 488 kts 232°
2026-04-22 20:09 54.82925 10.55969 33708 ft 488 kts 232°
2026-04-22 20:09 54.81007 10.51123 34033 ft 487 kts 232°
2026-04-22 20:10 54.79088 10.46273 34351 ft 488 kts 231°
2026-04-22 20:10 54.77166 10.41431 34642 ft 488 kts 231°
2026-04-22 20:10 54.75240 10.36598 34927 ft 487 kts 231°
2026-04-22 20:10 54.73318 10.31786 35221 ft 486 kts 231°
2026-04-22 20:11 54.71358 10.27049 35513 ft 482 kts 227°
2026-04-22 20:11 54.69176 10.22667 35791 ft 479 kts 224°
2026-04-22 20:11 54.66976 10.18344 36071 ft 478 kts 224°
2026-04-22 20:11 54.64780 10.14037 36281 ft 478 kts 224°
2026-04-22 20:12 54.62592 10.09748 36331 ft 474 kts 224°
2026-04-22 20:12 54.58244 10.01258 36349 ft 471 kts 224°
2026-04-22 20:13 54.53894 9.92810 36336 ft 471 kts 224°
2026-04-22 20:13 54.49500 9.84450 36349 ft 470 kts 221°
2026-04-22 20:14 54.44840 9.76612 36354 ft 468 kts 218°
2026-04-22 20:14 54.40045 9.69076 36356 ft 467 kts 217°
2026-04-22 20:15 54.35296 9.61550 36366 ft 468 kts 218°
2026-04-22 20:15 54.30568 9.53896 36376 ft 468 kts 218°
2026-04-22 20:16 54.25850 9.46236 36374 ft 467 kts 218°
2026-04-22 20:16 54.21124 9.38619 36360 ft 467 kts 218°
2026-04-22 20:17 54.16389 9.31044 36354 ft 466 kts 218°
2026-04-22 20:17 54.11651 9.23489 36369 ft 466 kts 218°
2026-04-22 20:18 54.06914 9.15960 36366 ft 466 kts 218°
2026-04-22 20:18 54.02172 9.08437 36369 ft 466 kts 218°
2026-04-22 20:19 53.97428 9.00932 36373 ft 466 kts 217°
2026-04-22 20:19 53.92679 8.93450 36367 ft 466 kts 217°
2026-04-22 20:20 53.87930 8.85984 36399 ft 465 kts 217°
2026-04-22 20:20 53.83181 8.78546 36398 ft 465 kts 217°
2026-04-22 20:21 53.78427 8.71132 36395 ft 465 kts 217°
2026-04-22 20:21 53.73702 8.63790 36392 ft 464 kts 217°
2026-04-22 20:22 53.68944 8.56421 36388 ft 464 kts 217°
2026-04-22 20:22 53.64187 8.49067 36397 ft 464 kts 217°
2026-04-22 20:23 53.59427 8.41731 36396 ft 464 kts 217°
2026-04-22 20:23 53.54665 8.34416 36389 ft 463 kts 217°
2026-04-22 20:24 53.49899 8.27125 36395 ft 463 kts 217°
2026-04-22 20:24 53.45133 8.19859 36422 ft 463 kts 217°
2026-04-22 20:25 53.40370 8.12599 36414 ft 462 kts 217°
2026-04-22 20:25 53.35614 8.05377 36409 ft 461 kts 217°
2026-04-22 20:26 53.30851 7.98180 36412 ft 461 kts 217°
2026-04-22 20:26 53.26086 7.91010 36410 ft 461 kts 217°
2026-04-22 20:27 53.21320 7.83858 36405 ft 461 kts 217°
2026-04-22 20:27 53.16548 7.76711 36408 ft 461 kts 217°
2026-04-22 20:28 53.11771 7.69587 36405 ft 461 kts 217°
2026-04-22 20:28 53.06996 7.62477 36409 ft 461 kts 217°
2026-04-22 20:29 53.02219 7.55384 36411 ft 460 kts 217°
2026-04-22 20:29 52.97441 7.48307 36434 ft 460 kts 218°
2026-04-22 20:30 52.92659 7.41262 36425 ft 460 kts 218°
2026-04-22 20:30 52.87875 7.34242 36424 ft 459 kts 218°
2026-04-22 20:31 52.83093 7.27242 36422 ft 459 kts 218°
2026-04-22 20:31 52.78343 7.20303 36440 ft 459 kts 218°
2026-04-22 20:32 52.73557 7.13332 36428 ft 459 kts 218°
2026-04-22 20:32 52.68769 7.06377 36423 ft 458 kts 218°
2026-04-22 20:33 52.63996 6.99421 36412 ft 458 kts 219°
2026-04-22 20:33 52.59268 6.92378 36408 ft 458 kts 220°
2026-04-22 20:34 52.54553 6.85327 36403 ft 458 kts 220°
2026-04-22 20:34 52.49824 6.78311 36404 ft 458 kts 220°
2026-04-22 20:35 52.45087 6.71324 36402 ft 458 kts 220°
2026-04-22 20:35 52.40352 6.64356 36395 ft 458 kts 220°
2026-04-22 20:36 52.35606 6.57405 36382 ft 458 kts 220°
2026-04-22 20:36 52.30859 6.50473 36396 ft 457 kts 220°
2026-04-22 20:37 52.26116 6.43541 36385 ft 458 kts 220°
2026-04-22 20:37 52.21366 6.36632 36380 ft 457 kts 221°
2026-04-22 20:38 52.16608 6.29742 36374 ft 458 kts 220°
2026-04-22 20:38 52.11847 6.22870 36379 ft 458 kts 221°
2026-04-22 20:39 52.07079 6.16011 36383 ft 458 kts 221°
2026-04-22 20:39 52.02304 6.09153 36380 ft 458 kts 221°
2026-04-22 20:40 51.97527 6.02311 36383 ft 458 kts 221°
2026-04-22 20:40 51.92744 5.95489 36375 ft 458 kts 221°
2026-04-22 20:41 51.87953 5.88672 36387 ft 459 kts 221°
2026-04-22 20:41 51.83190 5.81911 36374 ft 459 kts 221°
2026-04-22 20:42 51.78389 5.75124 36392 ft 458 kts 221°
2026-04-22 20:42 51.73594 5.68347 36395 ft 458 kts 221°
2026-04-22 20:43 51.68799 5.61598 36386 ft 458 kts 221°
2026-04-22 20:43 51.63994 5.54866 36383 ft 457 kts 221°
2026-04-22 20:44 51.59191 5.48152 36389 ft 457 kts 221°
2026-04-22 20:44 51.54391 5.41448 36390 ft 457 kts 221°
2026-04-22 20:45 51.49584 5.34766 36382 ft 457 kts 221°
2026-04-22 20:45 51.44777 5.28098 36384 ft 457 kts 221°
2026-04-22 20:46 51.37554 5.18127 36384 ft 457 kts 222°
2026-04-22 20:46 51.32734 5.11498 36374 ft 457 kts 222°
2026-04-22 20:47 51.27917 5.04878 36369 ft 457 kts 222°
2026-04-22 20:47 51.23091 4.98276 36368 ft 457 kts 222°
2026-04-22 20:48 51.18261 4.91689 36374 ft 457 kts 222°
2026-04-22 20:48 51.13432 4.85116 36375 ft 457 kts 222°
2026-04-22 20:49 51.09414 4.79660 36374 ft 457 kts 222°
2026-04-22 20:49 51.04573 4.73113 36366 ft 457 kts 221°
2026-04-22 20:50 50.99731 4.66586 36354 ft 457 kts 222°
2026-04-22 20:50 50.94885 4.60071 36362 ft 456 kts 222°
2026-04-22 20:51 50.89886 4.53867 36365 ft 458 kts 212°
2026-04-22 20:51 50.84133 4.49535 36365 ft 459 kts 205°
2026-04-22 20:52 50.78287 4.45447 36366 ft 459 kts 205°
2026-04-22 20:52 50.72440 4.41361 36364 ft 459 kts 205°
2026-04-22 20:53 50.66540 4.37255 35683 ft 467 kts 205°
2026-04-22 20:53 50.63561 4.35192 35114 ft 464 kts 205°
2026-04-22 20:53 50.60611 4.33157 34529 ft 462 kts 205°
2026-04-22 20:54 50.57676 4.31135 33904 ft 459 kts 205°
2026-04-22 20:54 50.54764 4.29128 33354 ft 455 kts 206°
2026-04-22 20:54 50.51876 4.27134 32780 ft 451 kts 206°
2026-04-22 20:54 50.49012 4.25157 32214 ft 449 kts 206°
2026-04-22 20:55 50.46162 4.23192 31660 ft 446 kts 205°
2026-04-22 20:55 50.43330 4.21242 31121 ft 443 kts 205°
2026-04-22 20:55 50.40514 4.19309 30585 ft 441 kts 205°
2026-04-22 20:55 50.37711 4.17391 30001 ft 439 kts 205°
2026-04-22 20:56 50.34926 4.15486 29485 ft 434 kts 205°
2026-04-22 20:56 50.32169 4.13621 28993 ft 429 kts 202°
2026-04-22 20:56 50.29370 4.12269 28550 ft 425 kts 192°
2026-04-22 20:56 50.26454 4.11648 28096 ft 421 kts 182°
2026-04-22 20:57 50.23544 4.11436 27656 ft 417 kts 182°
2026-04-22 20:57 50.20664 4.11225 27216 ft 413 kts 182°
2026-04-22 20:57 50.17808 4.11016 26777 ft 409 kts 182°
2026-04-22 20:57 50.14977 4.10808 26347 ft 406 kts 182°
2026-04-22 20:58 50.12173 4.10601 26013 ft 402 kts 182°
2026-04-22 20:58 50.09384 4.10393 25700 ft 400 kts 182°
2026-04-22 20:58 50.06611 4.10181 25378 ft 398 kts 182°
2026-04-22 20:58 50.03854 4.09969 25067 ft 395 kts 182°
2026-04-22 20:59 50.01115 4.09765 24750 ft 393 kts 181°
2026-04-22 20:59 49.98399 4.09567 24437 ft 391 kts 181°
2026-04-22 20:59 49.95688 4.09365 24124 ft 388 kts 181°
2026-04-22 20:59 49.92998 4.09166 23799 ft 386 kts 181°
2026-04-22 21:00 49.90323 4.08968 23471 ft 384 kts 181°
2026-04-22 21:00 49.87659 4.08771 23168 ft 383 kts 181°
2026-04-22 21:00 49.85006 4.08577 22862 ft 381 kts 181°
2026-04-22 21:00 49.82367 4.08382 22560 ft 379 kts 181°
2026-04-22 21:01 49.79739 4.08188 22253 ft 377 kts 180°
2026-04-22 21:01 49.77125 4.08000 21956 ft 375 kts 180°
2026-04-22 21:01 49.74524 4.07812 21654 ft 373 kts 180°
2026-04-22 21:01 49.71934 4.07622 21355 ft 372 kts 180°
2026-04-22 21:02 49.69360 4.07431 21056 ft 370 kts 180°
2026-04-22 21:02 49.66794 4.07241 20774 ft 368 kts 180°
2026-04-22 21:02 49.64246 4.06997 20470 ft 367 kts 186°
2026-04-22 21:02 49.61773 4.06035 20176 ft 368 kts 200°
2026-04-22 21:03 49.59518 4.04186 19883 ft 368 kts 215°
2026-04-22 21:03 49.57624 4.01550 19585 ft 367 kts 230°
2026-04-22 21:03 49.56153 3.98361 19292 ft 365 kts 238°
2026-04-22 21:03 49.54795 3.95119 18999 ft 365 kts 238°
2026-04-22 21:04 49.53414 3.91846 18709 ft 364 kts 238°
2026-04-22 21:04 49.52034 3.88584 18386 ft 363 kts 237°
2026-04-22 21:04 49.50658 3.85337 18091 ft 362 kts 237°
2026-04-22 21:04 49.49290 3.82098 17798 ft 360 kts 237°
2026-04-22 21:05 49.47977 3.78835 17505 ft 358 kts 244°
2026-04-22 21:05 49.47058 3.75305 17220 ft 354 kts 256°
2026-04-22 21:05 49.46450 3.71645 16952 ft 353 kts 258°
2026-04-22 21:05 49.45841 3.68005 16666 ft 350 kts 257°
2026-04-22 21:06 49.45229 3.64390 16377 ft 349 kts 257°
2026-04-22 21:06 49.44617 3.60791 16152 ft 348 kts 257°
2026-04-22 21:06 49.44005 3.57198 15953 ft 347 kts 257°
2026-04-22 21:06 49.43389 3.53617 15763 ft 346 kts 256°
2026-04-22 21:07 49.42775 3.50048 15563 ft 345 kts 256°
2026-04-22 21:07 49.42163 3.46491 15361 ft 344 kts 255°
2026-04-22 21:07 49.41377 3.43021 15136 ft 344 kts 248°
2026-04-22 21:07 49.40476 3.39633 14850 ft 342 kts 248°
2026-04-22 21:08 49.39576 3.36259 14570 ft 341 kts 248°
2026-04-22 21:08 49.38677 3.32899 14298 ft 340 kts 248°
2026-04-22 21:08 49.37780 3.29553 14012 ft 338 kts 248°
2026-04-22 21:08 49.36886 3.26225 13733 ft 337 kts 248°
2026-04-22 21:09 49.35996 3.22910 13461 ft 335 kts 247°
2026-04-22 21:09 49.35111 3.19616 13188 ft 333 kts 247°
2026-04-22 21:09 49.34228 3.16337 12928 ft 332 kts 247°
2026-04-22 21:09 49.33348 3.13082 12666 ft 330 kts 247°
2026-04-22 21:10 49.32472 3.09842 12400 ft 328 kts 247°
2026-04-22 21:10 49.31600 3.06622 12136 ft 326 kts 247°
2026-04-22 21:10 49.30730 3.03418 11873 ft 325 kts 247°
2026-04-22 21:10 49.29865 3.00236 11612 ft 323 kts 247°
2026-04-22 21:11 49.29003 2.97070 11349 ft 321 kts 247°
2026-04-22 21:11 49.28145 2.93922 11088 ft 319 kts 246°
2026-04-22 21:11 49.27290 2.90792 10839 ft 318 kts 246°
2026-04-22 21:11 49.26440 2.87680 10591 ft 316 kts 246°
2026-04-22 21:12 49.25598 2.84602 10323 ft 311 kts 246°
2026-04-22 21:12 49.24770 2.81573 10066 ft 306 kts 246°
2026-04-22 21:12 49.23967 2.78629 9826 ft 304 kts 246°
2026-04-22 21:12 49.23150 2.75637 9584 ft 303 kts 246°
2026-04-22 21:13 49.22336 2.72669 9338 ft 302 kts 246°
2026-04-22 21:13 49.21522 2.69713 9106 ft 301 kts 246°
2026-04-22 21:13 49.20710 2.66773 8857 ft 300 kts 246°
2026-04-22 21:13 49.19897 2.63840 8612 ft 299 kts 246°
2026-04-22 21:14 49.19086 2.60915 8375 ft 298 kts 246°
2026-04-22 21:14 49.18359 2.57948 8127 ft 298 kts 255°
2026-04-22 21:14 49.18052 2.54830 7898 ft 297 kts 268°
2026-04-22 21:14 49.18000 2.51673 7662 ft 296 kts 268°
2026-04-22 21:15 49.17938 2.48528 7426 ft 296 kts 268°
2026-04-22 21:15 49.17866 2.45397 7189 ft 295 kts 268°
2026-04-22 21:15 49.17791 2.42271 6957 ft 294 kts 268°
2026-04-22 21:15 49.17714 2.39159 6717 ft 293 kts 268°
2026-04-22 21:16 49.17643 2.36055 6472 ft 292 kts 268°
2026-04-22 21:16 49.17599 2.32957 6295 ft 291 kts 269°
2026-04-22 21:16 49.17572 2.29865 6166 ft 291 kts 269°
2026-04-22 21:16 49.17552 2.26778 6059 ft 291 kts 269°
2026-04-22 21:17 49.17529 2.23693 5972 ft 290 kts 269°
2026-04-22 21:17 49.17499 2.20611 5912 ft 290 kts 269°
2026-04-22 21:17 49.17293 2.17559 5829 ft 288 kts 250°
2026-04-22 21:17 49.16313 2.14949 5761 ft 283 kts 223°
2026-04-22 21:18 49.14708 2.13345 5681 ft 274 kts 194°
2026-04-22 21:18 49.12866 2.13076 5609 ft 263 kts 166°
2026-04-22 21:18 49.11229 2.14011 5531 ft 243 kts 150°
2026-04-22 21:18 49.09737 2.15048 5452 ft 229 kts 152°
2026-04-22 21:19 49.08310 2.16001 5378 ft 223 kts 152°
2026-04-22 21:19 49.06874 2.16964 5244 ft 228 kts 152°
2026-04-22 21:19 49.05431 2.17929 4977 ft 226 kts 152°
2026-04-22 21:19 49.03997 2.18870 4691 ft 223 kts 152°
2026-04-22 21:20 49.02653 2.19970 4474 ft 216 kts 137°
2026-04-22 21:20 49.01649 2.21631 4304 ft 212 kts 119°
2026-04-22 21:20 49.01082 2.23665 4098 ft 208 kts 102°
2026-04-22 21:20 49.00993 2.25844 3852 ft 206 kts 86°
2026-04-22 21:21 49.01116 2.27998 3586 ft 202 kts 86°
2026-04-22 21:21 49.01237 2.30088 3322 ft 194 kts 87°
2026-04-22 21:21 49.01351 2.32118 3063 ft 190 kts 87°
2026-04-22 21:21 49.01462 2.34112 2814 ft 188 kts 86°
2026-04-22 21:22 49.01572 2.36086 2553 ft 186 kts 87°
2026-04-22 21:22 49.01679 2.38017 2305 ft 180 kts 87°
2026-04-22 21:22 49.01782 2.39866 2063 ft 168 kts 88°
2026-04-22 21:22 49.01876 2.41580 1870 ft 158 kts 87°
2026-04-22 21:23 49.01967 2.43239 1638 ft 157 kts 86°
2026-04-22 21:23 49.02055 2.44839 1408 ft 144 kts 86°
2026-04-22 21:23 49.02135 2.46290 1252 ft 133 kts 85°
2026-04-22 21:23 49.02211 2.47678 1043 ft 132 kts 84°
2026-04-22 21:24 49.02285 2.49049 889 ft 128 kts 84°
2026-04-22 21:24 49.02359 2.50399 703 ft 128 kts 83°
2026-04-22 21:24 49.02432 2.51751 489 ft 127 kts 83°
2026-04-22 21:24 49.02504 2.53072 357 ft 116 kts 85°
2026-04-22 21:25 49.02558 2.54059 354 ft 69 kts 85°
2026-04-22 21:25 49.02584 2.54551 357 ft 34 kts 85°
2026-04-22 21:25 49.02602 2.54886 356 ft 30 kts 85°
2026-04-22 21:25 49.02594 2.55168 356 ft 23 kts 101°
2026-04-22 21:26 49.02536 2.55400 354 ft 24 kts 115°
2026-04-22 21:26 49.02468 2.55584 357 ft 15 kts 138°
2026-04-22 21:26 49.02364 2.55617 354 ft 15 kts 175°
2026-04-22 21:26 49.02250 2.55632 354 ft 18 kts 175°
2026-04-22 21:27 49.02154 2.55644 357 ft 12 kts 175°
2026-04-22 21:27 49.02086 2.55692 358 ft 11 kts 121°
2026-04-22 21:27 49.02081 2.55822 354 ft 14 kts 86°
2026-04-22 21:27 49.02090 2.55986 354 ft 17 kts 84°
2026-04-22 21:28 49.02098 2.56164 354 ft 17 kts 88°
2026-04-22 21:28 49.02051 2.56331 356 ft 19 kts 127°
2026-04-22 21:28 49.02028 2.56519 354 ft 19 kts 84°
2026-04-22 21:28 49.02039 2.56729 354 ft 20 kts 85°
2026-04-22 21:29 49.02051 2.56949 354 ft 22 kts 86°
2026-04-22 21:29 49.02063 2.57190 359 ft 23 kts 86°
2026-04-22 21:29 49.02077 2.57438 363 ft 24 kts 85°
2026-04-22 21:29 49.02089 2.57696 354 ft 24 kts 87°
2026-04-22 21:30 49.02047 2.57936 357 ft 24 kts 126°
2026-04-22 21:30 49.01916 2.58095 357 ft 25 kts 160°
2026-04-22 21:30 49.01746 2.58133 354 ft 25 kts 175°
2026-04-22 21:30 49.01568 2.58153 354 ft 26 kts 175°
2026-04-22 21:31 49.01387 2.58177 354 ft 25 kts 175°
2026-04-22 21:31 49.01233 2.58199 359 ft 22 kts 175°
2026-04-22 21:31 49.01080 2.58217 354 ft 22 kts 175°
2026-04-22 21:31 49.00946 2.58217 359 ft 17 kts 205°
2026-04-22 21:32 49.00906 2.58067 354 ft 16 kts 264°
2026-04-22 21:32 49.00899 2.57891 354 ft 15 kts 268°
2026-04-22 21:32 49.00870 2.57744 356 ft 13 kts 225°
2026-04-22 21:32 49.00798 2.57760 354 ft 10 kts 151°
2026-04-22 21:33 49.00742 2.57787 359 ft 3 kts 164°
2026-04-22 21:33 49.00733 2.57791 354 ft 1 kts 162°
2026-04-22 21:33 49.00733 2.57792 354 ft 0 kts 162°